Theta_e
314 314 314 318 326 328 326 325 321 322 322 315 315 319 320 325 327 326 328 329 331 337 339 339 340 340 342 342 344 343 342 343 344 342 340 342 340 339 340 339 340 339 338 337 338 336 336 335 335 334 329 324 320 317 316 317 320 323 325 327 327 324 322 320 319 318 318 322 328 334 336 337 336 336 336 335 334 334 335 336 337 338 339 339 339 339 339 339 339 339 339 340 340 340 340 339 339
320 320 321 323 326 326 325 323 321 319 316 313 316 319 321 326 325 324 328 331 335 338 338 339 339 339 340 340 340 341 342 341 342 342 340 340 339 339 339 340 340 339 337 335 335 335 337 334 329 327 322 320 319 318 319 321 325 328 330 331 331 331 330 327 328 328 324 318 317 322 329 335 336 336 335 335 335 335 335 335 337 338 338 338 338 339 339 339 339 338 338 340 339 339 339 338 338
323 325 325 325 325 323 324 320 319 315 313 311 316 322 324 327 325 328 332 336 339 338 337 338 338 339 338 340 340 341 343 341 341 340 339 340 339 339 339 340 340 338 336 335 335 336 337 330 322 322 320 321 321 321 322 325 328 330 332 332 332 333 333 330 329 332 333 328 322 317 317 325 332 335 335 335 335 336 335 336 337 337 337 337 337 338 338 339 339 338 338 339 338 338 338 338 337
323 326 324 323 322 322 322 319 320 316 311 311 315 325 329 332 333 335 337 339 339 337 338 337 338 338 338 341 340 342 343 341 341 341 339 338 338 339 339 340 338 336 334 335 336 335 334 325 320 320 322 323 324 324 324 326 328 329 330 331 332 333 334 332 329 330 333 334 332 326 318 316 322 330 335 335 335 336 336 336 337 336 335 336 337 338 338 338 338 338 338 338 337 337 337 337 337
322 324 324 324 322 320 323 320 320 316 313 313 316 326 334 336 339 340 340 338 337 337 337 336 339 337 337 340 340 342 342 341 342 341 340 337 339 340 339 339 336 334 334 335 334 334 331 322 319 321 324 327 327 327 327 328 328 329 329 330 331 331 333 332 332 332 333 334 333 333 329 323 321 324 329 333 334 336 335 336 337 335 335 337 337 337 338 337 337 337 338 338 336 337 336 336 336
323 324 323 325 323 321 321 317 316 315 317 318 320 328 336 338 340 340 339 339 338 337 337 336 338 338 339 339 339 341 340 341 340 340 339 339 340 339 338 336 334 334 334 334 333 334 329 320 321 323 328 330 330 331 331 330 329 329 331 331 331 331 331 331 332 332 333 333 333 333 333 331 328 325 325 329 332 335 333 333 335 335 337 337 336 337 338 338 337 337 338 337 336 337 336 335 335
322 322 321 321 321 321 319 315 314 315 319 323 325 331 336 339 338 338 338 338 337 336 336 337 337 339 341 340 339 339 340 341 340 339 338 338 338 337 336 333 333 334 334 333 332 332 326 321 324 325 329 332 332 332 330 330 329 330 332 332 331 330 330 329 331 332 332 332 332 333 333 333 333 331 329 329 331 334 334 334 335 335 336 336 336 336 337 337 337 337 337 336 335 336 336 335 335
322 320 319 320 319 319 319 315 317 319 320 323 330 335 338 340 337 336 337 335 337 336 337 338 337 339 341 340 339 339 339 340 340 338 337 337 336 335 334 332 333 333 332 332 331 330 326 324 326 326 329 330 330 329 328 329 329 331 331 331 330 329 327 328 329 331 332 332 333 332 331 330 333 334 331 331 333 334 335 334 334 334 334 334 334 334 334 336 336 336 336 335 335 334 335 335 335
321 319 318 319 319 318 317 315 317 321 323 324 330 336 339 338 336 337 337 335 337 337 339 339 337 340 342 340 339 337 338 339 338 337 336 335 335 335 333 331 331 331 331 331 331 332 329 326 326 327 327 327 327 326 329 330 329 329 329 329 328 325 323 324 326 329 330 331 333 331 328 328 331 333 331 332 334 334 334 330 328 330 331 331 331 331 333 336 336 335 334 334 335 334 334 334 333
321 319 319 319 317 315 314 315 318 321 324 327 330 335 337 336 336 337 337 338 338 340 341 337 336 340 341 340 338 335 337 337 335 335 335 335 334 333 333 331 331 330 330 332 332 333 331 329 327 327 327 327 327 326 328 328 327 327 326 326 324 320 320 322 324 326 327 329 331 330 329 330 331 332 331 333 334 334 333 330 329 329 331 331 329 329 332 334 336 335 333 334 334 334 333 333 333
320 319 320 318 316 313 312 315 319 324 327 329 331 334 335 334 336 336 338 339 338 341 341 338 338 338 338 338 337 336 337 336 334 335 334 334 332 331 331 332 332 332 332 333 333 331 332 331 328 329 328 328 327 325 326 326 325 325 324 323 321 319 319 320 323 324 324 326 328 328 329 330 331 332 332 333 333 333 332 332 332 331 332 332 328 325 331 334 336 335 333 334 335 334 333 332 333
320 318 319 317 314 314 315 317 320 325 329 330 333 334 334 334 335 337 339 340 339 341 341 339 339 339 339 337 336 337 337 333 334 334 333 332 330 329 329 332 333 333 333 333 332 332 333 332 332 332 330 327 326 325 325 325 324 325 324 322 321 320 319 320 322 323 323 324 326 328 328 329 330 331 332 331 332 332 332 332 332 331 331 332 331 327 332 334 334 333 333 334 334 335 335 334 334
320 318 319 317 316 317 317 319 322 325 328 331 334 334 334 334 336 337 339 341 341 342 340 339 338 338 339 337 336 336 334 332 333 333 332 329 328 329 330 332 333 333 333 332 333 333 334 334 335 335 331 328 327 325 324 325 324 324 323 323 321 319 320 320 321 322 323 323 325 327 328 329 330 330 331 331 331 332 331 331 331 331 331 333 334 331 333 335 332 332 333 333 334 335 336 335 335
322 321 320 318 317 319 318 318 320 322 324 330 333 334 335 334 334 335 338 340 340 340 339 337 337 337 336 336 336 333 331 332 333 333 331 330 330 330 331 332 333 333 333 332 333 334 335 335 335 335 332 329 328 327 326 325 324 323 323 322 321 320 320 320 321 322 322 323 324 325 327 328 329 329 329 330 332 331 330 332 332 332 332 334 335 334 334 334 332 332 333 334 334 334 334 336 335
323 322 322 319 318 317 317 318 319 318 322 330 333 333 335 335 334 335 336 339 339 336 337 338 337 338 336 337 337 332 331 333 333 333 332 331 330 330 330 331 332 333 332 333 333 335 335 335 335 334 332 330 328 327 327 326 324 323 323 322 320 319 320 321 323 323 322 323 323 324 325 327 328 330 330 330 331 331 331 332 333 332 332 333 334 334 333 332 332 333 334 333 334 333 333 335 335
322 323 325 322 319 317 317 318 318 318 322 330 332 332 335 336 336 336 335 336 337 335 336 338 336 338 337 336 336 333 333 334 333 333 332 331 330 330 331 332 333 332 333 333 333 334 334 335 334 332 330 329 328 328 328 327 324 324 324 322 321 321 321 324 325 325 325 324 324 324 325 328 330 332 330 330 331 330 330 331 332 331 332 332 332 333 332 332 332 332 333 333 333 333 333 334 334
322 325 328 323 320 318 317 319 318 319 325 330 331 332 334 338 338 336 335 335 338 338 337 337 336 337 336 335 334 333 334 334 334 333 330 329 330 332 332 333 332 332 334 333 334 334 333 333 332 330 329 329 328 328 328 327 325 326 326 325 324 324 324 325 324 325 326 325 325 326 327 328 330 332 331 331 332 330 329 330 330 331 332 331 332 332 332 332 331 332 332 332 332 332 333 335 335
324 327 328 325 323 321 319 320 321 323 327 330 332 333 335 340 340 336 337 338 339 339 338 337 337 337 336 335 334 334 335 334 334 331 330 330 331 331 331 332 331 331 333 333 334 334 331 331 330 329 329 329 329 328 328 327 327 327 327 326 325 325 325 325 324 323 324 325 325 326 327 327 327 330 330 331 332 330 329 328 329 330 330 330 331 331 330 331 331 331 331 331 332 333 335 338 337
326 327 328 328 327 324 324 323 323 325 327 330 333 334 337 341 340 336 339 339 338 339 339 339 337 336 336 335 335 336 336 335 334 332 332 332 331 330 330 330 330 330 331 331 332 332 331 329 330 330 330 331 329 328 327 326 327 327 326 326 324 324 324 324 324 323 323 324 325 325 326 326 326 327 328 329 329 329 329 328 328 329 329 329 331 330 329 330 330 331 331 332 333 335 336 338 338
328 328 328 328 328 326 328 326 325 327 329 332 334 335 338 339 336 337 339 339 337 337 338 340 339 336 335 334 336 336 335 336 335 335 334 332 332 331 330 330 330 330 330 329 329 330 330 330 330 330 331 331 329 327 327 326 327 326 326 326 324 324 323 323 323 323 323 324 324 324 324 325 326 326 326 327 327 328 328 329 329 331 330 330 331 331 331 331 333 334 334 334 336 336 337 337 338
329 329 329 328 327 328 330 329 327 328 329 334 336 337 338 336 336 337 339 339 337 337 336 337 338 336 335 334 335 336 335 337 336 335 334 333 333 332 331 331 330 330 329 329 328 329 330 331 331 330 331 331 329 327 327 327 327 326 326 326 325 324 323 322 323 322 322 323 323 323 323 324 323 324 326 326 326 326 327 328 329 331 331 331 331 332 332 333 334 336 335 336 337 337 337 337 338
329 329 329 328 328 329 330 330 330 331 332 335 336 336 336 336 337 337 337 337 336 336 336 336 336 334 334 333 333 334 335 336 336 335 334 334 334 332 332 331 330 329 329 329 329 329 330 331 331 330 330 331 330 328 327 327 327 326 326 326 325 324 323 323 322 322 322 323 323 323 322 321 321 322 324 325 325 326 327 327 328 329 330 330 331 331 332 333 333 334 335 335 336 337 337 337 337
331 329 327 329 330 330 330 331 333 333 333 334 334 335 335 336 337 336 336 334 333 334 335 335 334 332 332 332 332 333 334 334 334 334 334 333 333 332 332 331 330 329 329 329 329 330 331 331 331 330 330 331 331 329 327 327 327 327 327 326 326 325 324 323 322 323 323 324 324 324 322 321 321 321 322 324 325 325 326 326 327 328 329 329 330 331 332 332 333 333 334 334 336 336 337 337 337
331 330 329 330 331 331 331 331 332 332 333 333 332 334 334 335 336 336 336 334 333 334 333 334 334 332 331 331 332 333 334 334 333 334 333 333 333 333 333 332 331 329 329 330 329 330 331 332 332 330 331 331 330 329 327 327 327 327 327 326 326 325 324 324 323 323 323 324 324 324 323 321 321 321 321 322 324 324 325 326 327 327 328 328 328 329 330 332 333 333 333 333 335 337 337 337 337
330 331 331 331 331 330 330 330 330 331 332 331 333 334 334 334 335 335 337 335 333 334 332 333 332 330 330 330 331 333 333 334 334 334 334 334 333 334 333 333 331 330 330 330 330 331 332 332 331 330 331 331 330 329 327 327 328 327 327 327 327 325 325 324 324 324 323 323 324 323 323 322 320 320 321 321 323 324 324 325 326 327 327 327 328 328 329 331 332 332 332 332 333 335 337 337 338
331 331 330 331 330 330 330 330 330 331 331 332 333 334 333 332 333 335 335 334 332 333 332 332 331 329 330 331 330 331 332 333 334 335 335 335 334 335 334 333 331 330 330 330 330 330 332 331 330 330 331 331 331 330 329 329 329 328 328 327 327 326 325 325 324 324 324 324 324 324 323 321 320 320 320 321 322 323 323 324 325 326 326 327 327 327 328 330 330 331 331 331 332 334 336 337 337
330 331 330 331 331 330 330 330 331 331 331 332 333 333 332 331 331 332 334 334 331 331 331 330 330 330 330 329 330 331 331 333 334 335 336 336 335 335 335 333 330 330 330 330 330 330 332 332 330 331 332 332 332 331 330 330 329 329 329 328 327 326 325 326 325 324 325 325 325 324 323 321 319 320 320 320 321 322 322 323 324 325 325 326 326 327 327 329 330 330 330 332 332 333 335 337 337
329 330 330 331 330 330 331 331 331 331 331 331 331 332 330 329 329 330 333 334 332 331 331 331 331 331 329 329 329 330 332 332 334 334 335 334 333 333 333 332 330 331 330 330 330 331 332 332 331 332 332 333 333 331 331 330 330 330 329 328 328 328 326 326 326 325 325 326 325 324 323 321 320 320 321 321 321 321 322 322 323 324 324 325 326 327 327 328 329 329 330 331 332 333 335 337 337
329 329 330 330 330 330 329 330 330 331 331 331 331 330 328 329 329 330 332 334 333 332 332 331 331 331 329 330 329 329 332 333 333 334 333 332 332 331 331 331 331 331 331 331 331 332 333 332 332 332 332 334 334 333 332 331 331 331 330 330 330 329 327 326 326 326 326 326 326 325 323 321 320 320 321 320 320 320 321 322 322 323 324 325 326 327 327 328 329 329 330 330 330 332 335 337 337
329 330 330 329 327 328 329 328 329 330 330 330 330 325 325 329 330 330 332 331 331 331 331 330 331 331 330 330 329 329 332 333 333 333 332 332 331 331 331 331 332 331 330 331 332 333 332 332 332 332 333 334 334 333 333 333 333 333 331 331 332 329 327 327 327 326 326 326 325 325 323 321 321 320 320 320 320 320 321 322 322 323 324 325 325 327 327 327 328 328 328 328 329 330 333 337 337
330 329 329 328 323 323 329 328 328 330 329 330 330 322 323 329 329 330 330 330 330 329 330 329 330 331 330 330 330 329 330 332 333 333 332 332 331 331 332 332 332 332 332 332 333 333 333 333 332 332 332 333 334 334 334 334 334 334 332 331 332 330 328 328 327 326 326 326 325 325 324 322 321 321 321 321 322 321 321 322 322 323 323 325 325 327 327 326 327 327 327 328 328 329 332 336 337
330 325 323 325 321 322 329 328 328 329 327 331 331 322 323 329 329 330 331 329 330 329 328 329 329 330 329 330 331 329 330 331 332 332 332 332 331 332 332 332 332 333 333 333 333 334 333 333 333 332 332 334 334 334 335 335 335 334 333 332 332 331 328 328 328 326 327 326 325 325 325 323 322 322 321 322 323 322 321 322 322 322 323 325 326 327 326 327 327 327 326 327 328 329 331 334 337
328 324 319 321 321 322 326 328 329 329 328 330 329 324 324 328 328 329 330 329 330 329 328 328 329 329 329 329 330 329 329 330 330 331 332 332 332 333 332 332 332 333 334 333 334 333 334 333 333 332 332 334 334 334 335 334 334 335 333 332 332 331 330 328 328 327 327 327 326 326 325 324 324 323 322 323 323 321 321 321 321 323 324 325 326 326 326 326 327 327 326 327 329 329 329 333 336
322 324 320 321 323 321 322 326 328 328 329 328 328 326 325 327 328 329 330 330 330 330 328 328 329 329 329 329 329 330 329 329 329 331 333 334 335 334 333 333 333 334 334 334 334 333 333 333 333 332 332 333 333 334 335 334 334 334 332 332 333 332 331 330 328 328 328 327 327 326 326 325 325 324 323 323 323 322 321 321 321 323 325 325 326 326 326 326 326 326 327 329 330 331 330 332 335
320 321 319 320 323 322 321 324 327 329 329 327 326 325 325 327 328 329 330 330 330 330 329 329 330 329 330 330 329 329 330 330 330 331 333 334 336 335 334 334 334 334 335 335 335 333 333 333 333 333 333 333 333 334 335 333 332 332 331 332 332 331 331 331 329 329 328 328 327 327 326 326 325 325 324 324 323 322 321 321 322 323 324 325 325 326 326 325 326 326 327 329 330 331 331 332 335
323 323 321 319 319 321 323 324 326 328 329 327 326 324 324 326 327 328 329 330 331 329 330 329 329 330 330 330 330 330 330 330 331 333 333 334 335 335 335 335 335 335 336 336 335 334 334 334 333 333 334 334 334 334 333 331 330 331 331 331 332 331 331 332 331 330 328 329 328 328 327 326 326 325 325 324 324 323 322 322 323 323 324 325 325 325 325 325 326 325 326 328 329 330 330 331 334
326 325 322 321 319 320 325 326 326 329 327 324 327 325 326 326 326 327 328 329 331 330 330 330 329 329 330 330 331 330 331 331 331 334 334 333 334 336 336 335 336 337 336 336 335 334 335 334 333 333 334 334 334 333 332 332 331 331 331 332 331 331 330 331 331 331 330 330 329 329 328 327 326 326 326 326 324 324 323 322 323 323 323 324 324 324 324 324 324 326 325 326 327 329 330 330 332
327 325 321 320 320 321 326 327 326 329 327 324 327 327 326 327 326 327 327 329 330 329 330 330 329 330 329 330 330 330 331 330 332 335 336 336 336 337 337 336 337 337 337 336 335 334 335 335 334 333 334 334 334 333 334 334 333 332 332 332 331 330 331 331 331 331 331 331 330 329 329 328 327 326 326 326 325 324 324 323 323 323 323 323 323 323 322 323 323 324 325 325 326 327 328 329 330
326 325 322 319 321 323 326 328 328 329 327 325 327 326 326 327 328 327 327 328 329 329 328 330 329 330 329 329 330 331 331 331 332 335 337 338 338 338 337 337 336 336 337 336 335 335 335 335 334 334 334 334 334 333 334 333 334 334 334 333 333 331 332 332 332 332 332 332 331 330 330 329 328 327 326 325 326 325 325 325 324 323 324 324 323 323 323 323 322 322 323 325 326 326 326 327 328
325 324 320 318 321 323 321 325 329 329 328 327 328 327 326 329 328 328 328 327 328 328 328 329 328 329 329 328 329 331 331 332 333 335 337 338 339 338 337 337 337 336 336 335 335 335 335 334 334 334 334 334 334 333 334 334 334 335 335 334 334 332 332 332 332 332 332 331 331 331 331 330 329 328 326 325 326 326 325 325 324 324 325 325 324 324 324 323 323 322 322 323 326 325 325 325 326
325 325 321 319 323 324 323 326 330 329 328 329 327 324 323 327 329 328 328 327 328 328 328 328 328 328 329 329 330 330 330 332 333 335 337 339 339 338 337 338 338 337 335 335 335 335 334 334 334 334 334 334 333 334 335 334 334 334 334 334 334 333 332 332 331 331 331 331 332 331 332 331 330 330 328 326 326 327 326 326 325 325 325 325 324 324 325 324 323 323 322 322 325 326 325 324 325
321 324 324 324 325 325 327 329 328 324 323 326 328 322 320 325 328 328 329 328 328 328 328 328 328 327 328 329 329 329 330 332 334 334 337 338 338 338 338 338 338 336 335 335 335 334 334 333 334 334 334 334 334 335 335 334 334 334 334 333 333 333 332 332 332 332 332 332 332 333 332 332 332 331 330 328 327 327 327 326 326 326 326 325 325 324 324 325 324 323 323 323 324 325 325 325 325
317 322 325 327 327 326 326 327 324 319 320 326 329 324 320 322 326 328 329 329 329 329 329 328 328 328 327 327 328 329 331 334 334 335 336 337 338 339 339 338 336 334 334 335 334 335 335 334 335 335 334 335 334 335 335 335 334 334 334 334 333 333 332 333 333 333 333 333 333 333 332 333 332 332 331 330 329 328 328 328 327 326 326 325 326 325 324 325 324 324 324 325 324 325 325 324 325
317 323 326 325 326 326 326 326 323 320 322 325 326 324 319 318 323 328 329 329 330 330 330 329 328 328 327 327 328 328 331 335 334 335 336 337 339 340 339 337 334 333 333 334 335 336 335 335 335 336 335 335 334 335 335 335 334 335 335 335 334 333 333 334 334 334 334 333 334 334 333 333 333 333 332 331 330 329 329 329 328 327 327 326 326 326 326 325 326 325 326 326 325 325 326 326 325
321 325 325 326 327 327 328 325 322 322 321 319 321 323 320 317 321 329 330 328 329 330 330 329 328 328 327 327 328 328 331 333 333 334 336 337 339 339 338 336 334 333 334 334 335 335 336 336 336 336 336 335 335 336 335 335 335 335 335 335 334 334 334 334 334 333 334 334 334 334 334 334 334 334 333 332 332 331 331 330 330 329 328 327 327 327 327 327 326 327 326 326 327 327 327 326 325
324 326 326 326 327 327 327 325 321 321 319 316 318 321 319 316 318 324 327 324 327 330 330 329 329 328 328 328 327 329 331 332 332 334 336 336 338 338 337 336 335 335 335 334 334 335 336 337 336 336 336 335 335 336 335 335 336 335 335 335 334 334 334 334 334 334 334 334 334 334 334 334 334 334 334 334 333 332 332 332 331 331 330 329 329 329 329 328 328 327 327 327 327 327 327 326 326
325 326 326 326 326 327 326 325 321 319 318 317 318 319 320 317 316 320 324 325 327 329 328 329 329 328 328 329 328 329 330 331 332 333 333 335 337 338 338 337 336 336 336 335 334 334 335 336 337 336 336 335 336 336 336 336 336 335 335 336 335 334 334 334 335 335 334 335 335 334 334 334 334 334 335 335 334 334 334 333 333 332 332 332 331 331 331 330 329 328 328 327 327 328 327 327 327
325 326 324 321 321 323 321 321 321 319 317 317 318 320 320 317 317 321 326 328 328 328 327 327 328 328 329 328 328 329 329 331 332 331 332 335 337 339 339 338 338 337 337 336 335 335 335 336 337 337 336 336 336 336 336 336 336 336 336 336 336 336 336 335 335 335 334 334 335 335 335 334 334 334 335 335 335 335 335 334 334 334 333 334 333 333 332 331 330 330 330 329 329 329 328 329 329
326 324 320 316 316 317 317 316 317 317 317 318 319 320 319 317 319 324 328 327 327 328 327 327 327 328 329 328 328 329 330 331 331 330 331 333 335 337 337 337 338 338 337 337 336 336 335 336 337 336 337 337 336 336 337 336 336 336 337 337 336 337 337 336 336 335 335 334 335 335 335 335 334 335 335 335 334 335 335 335 335 336 335 335 334 334 333 333 332 332 331 331 330 330 330 329 329
323 320 316 315 315 315 314 315 315 316 316 318 320 321 318 316 320 326 327 327 328 328 327 328 327 328 329 328 328 329 330 330 330 331 331 331 333 334 335 337 337 337 337 337 337 337 336 336 337 337 337 337 337 337 337 336 337 337 337 338 337 337 337 337 336 336 336 335 335 335 335 335 335 335 335 335 335 335 335 335 335 336 336 336 336 335 335 335 335 333 333 333 332 331 331 331 330
322 324 320 316 317 316 314 314 314 315 316 317 320 321 316 315 320 326 327 326 328 328 327 329 330 330 329 328 327 328 329 329 330 331 331 332 334 333 333 336 336 336 337 337 337 338 337 337 337 337 336 337 337 337 337 337 337 337 338 338 337 337 336 336 336 336 336 336 336 336 335 335 336 336 335 335 335 336 336 336 336 336 336 336 335 335 336 335 336 335 334 334 334 333 333 333 332
321 326 320 316 319 318 315 317 319 317 316 316 318 318 318 320 324 327 326 326 327 326 327 328 329 330 329 328 328 327 328 329 329 331 333 334 334 333 335 335 335 336 337 337 337 337 338 337 337 338 337 336 337 337 337 338 338 338 339 338 336 336 337 336 336 336 336 336 336 337 336 336 336 336 336 336 336 336 336 337 337 337 337 337 337 336 336 336 336 335 335 335 334 334 333 334 334
321 320 316 319 324 321 316 317 322 319 315 315 316 315 317 322 323 326 326 326 326 327 327 326 326 327 327 327 327 327 328 329 329 332 333 335 336 335 335 334 334 336 337 337 337 337 338 338 337 337 336 336 337 338 338 337 338 338 339 338 337 336 336 336 336 336 337 337 337 337 337 337 337 337 336 336 336 337 338 338 338 339 339 339 338 338 338 337 336 336 335 335 334 333 333 333 333
320 316 317 323 324 323 318 316 317 316 313 314 314 313 315 315 317 324 326 326 327 327 326 327 326 327 326 327 327 327 328 329 330 331 333 335 337 336 335 333 333 335 336 337 338 337 337 338 338 338 338 338 337 337 337 338 338 339 339 338 337 336 335 335 336 336 337 337 337 337 337 337 337 337 337 337 337 337 338 339 339 339 339 338 338 337 337 336 336 336 335 335 334 333 333 332 332
321 320 323 322 317 317 317 315 314 314 312 313 313 313 312 312 315 322 325 326 328 327 326 328 327 326 326 326 330 329 331 332 331 331 332 335 336 336 336 334 334 334 334 336 337 337 337 338 338 338 337 337 337 337 338 338 338 338 337 337 336 336 336 335 336 337 337 337 336 337 337 337 337 337 337 337 338 337 338 339 338 338 337 336 336 335 335 335 335 335 334 334 334 333 332 332 331
322 323 323 323 319 317 317 316 315 313 312 312 313 312 312 314 320 324 325 326 328 327 328 328 326 327 326 326 330 331 335 335 333 331 333 335 337 336 336 336 335 335 334 335 336 337 337 337 337 338 338 337 337 338 337 337 337 336 336 336 336 335 336 336 336 337 337 336 337 336 336 337 337 337 338 338 338 338 338 337 336 335 334 333 333 332 332 332 333 333 333 333 332 331 331 330 330
319 318 318 320 321 319 318 317 315 313 312 311 312 312 312 318 324 325 325 327 328 328 329 328 327 327 327 327 329 334 338 338 334 332 332 335 337 337 337 337 336 335 334 335 337 337 336 336 336 336 337 337 336 337 336 336 336 336 336 336 336 336 336 336 337 336 336 336 336 336 336 337 337 338 338 338 338 337 336 335 333 332 331 331 330 330 330 330 331 331 332 331 331 330 329 329 328
321 319 317 318 320 317 314 315 314 314 312 311 313 312 312 321 326 325 326 327 326 327 328 327 328 327 327 330 335 338 340 338 337 335 333 336 340 340 339 338 335 335 336 336 337 336 335 336 335 335 336 335 335 336 336 336 336 336 336 336 336 337 337 337 337 337 336 336 336 337 337 338 338 338 338 337 336 335 334 332 331 330 329 328 328 329 329 329 329 329 330 329 329 328 328 328 328
Wind_Speed
2 4 7 8 6 6 7 7 6 4 5 6 5 2 4 3 1 3 5 4 3 3 4 3 4 5 3 2 6 9 7 5 2 1 1 5 9 9 9 10 10 10 10 11 9 9 11 10 10 10 9 9 8 9 9 10 10 10 11 11 11 11 10 8 7 7 7 7 6 6 6 6 7 7 7 7 7 6 6 5 5 5 4 4 3 3 2 2 2 2 3 4 3 3 4 4 3
3 5 6 6 6 7 4 5 6 4 6 6 4 2 3 5 4 5 3 2 2 4 3 3 4 5 6 6 6 6 8 8 6 5 5 10 12 9 10 10 10 10 10 10 9 10 12 11 10 10 10 10 10 10 10 10 11 11 11 12 12 12 12 11 10 10 11 10 8 8 7 7 7 7 8 8 7 6 6 6 6 6 6 5 4 4 3 3 2 3 3 3 4 3 3 3 2
5 5 6 7 7 7 2 4 7 4 6 6 4 2 2 4 5 3 3 4 4 4 3 2 3 3 1 4 3 3 4 6 7 8 6 8 8 8 10 10 9 10 9 9 9 10 11 11 10 11 11 11 11 10 10 10 10 10 10 10 11 12 13 13 12 11 11 13 12 10 8 8 8 7 8 8 7 7 6 6 6 6 6 5 5 4 3 3 3 3 3 3 4 3 2 3 3
5 4 6 7 6 5 4 5 5 5 6 4 3 3 2 3 4 7 6 5 4 3 3 3 3 3 3 4 5 5 6 5 6 6 5 5 6 8 10 9 9 10 9 10 10 11 11 10 11 11 12 11 11 10 10 9 9 9 10 11 12 12 12 13 13 12 11 12 13 12 10 8 8 8 7 8 8 8 7 6 6 6 5 4 4 3 2 2 3 4 4 4 5 4 3 3 3
4 4 5 7 4 3 4 4 3 5 4 2 2 3 3 5 8 8 6 4 2 2 2 2 3 3 4 7 3 3 6 5 6 6 7 8 8 9 9 9 9 10 9 9 10 10 11 10 10 10 12 11 11 10 9 9 9 10 11 11 12 12 12 12 13 12 11 11 11 12 12 10 9 8 8 8 9 10 9 5 5 5 5 4 4 3 2 1 2 3 4 4 5 5 4 3 3
5 6 6 8 3 1 4 3 4 5 1 2 2 4 4 8 8 7 6 4 3 1 1 1 2 5 5 6 5 5 3 3 6 7 8 9 9 10 10 10 10 10 10 9 10 10 10 9 9 10 11 10 10 10 9 9 10 10 11 10 11 12 13 12 12 11 11 11 11 11 11 11 10 9 8 8 9 10 10 7 5 6 5 5 4 3 2 1 3 3 4 4 5 4 3 3 3
5 5 6 6 2 2 6 4 4 3 2 3 2 5 5 8 6 4 5 4 3 2 1 1 4 6 5 4 5 7 5 4 6 7 10 10 11 11 10 10 11 11 10 9 10 10 9 9 9 10 10 9 9 9 9 9 10 10 10 10 11 11 12 12 12 11 11 11 11 10 9 9 9 10 9 8 8 9 10 10 9 9 8 7 6 4 3 2 4 3 4 5 4 3 3 3 3
6 4 3 5 4 4 5 3 2 0 3 1 2 4 4 6 4 3 3 1 2 2 4 3 3 5 4 4 4 6 7 9 9 11 13 12 11 11 10 10 11 11 10 10 10 10 9 9 9 10 9 8 8 8 8 9 9 9 9 9 10 11 12 13 12 11 11 12 12 10 7 8 8 9 8 7 8 9 11 12 13 12 10 11 10 9 7 4 4 4 4 5 4 3 3 4 4
6 4 3 4 3 4 4 2 2 2 3 4 3 4 3 3 3 2 2 1 2 3 5 3 1 3 6 6 6 6 8 10 12 14 13 12 11 10 10 10 11 11 10 10 9 9 8 9 9 9 8 8 7 8 8 9 9 8 8 9 11 13 14 13 12 11 10 11 11 9 7 7 8 7 6 7 8 9 9 9 10 9 7 9 10 11 10 6 4 4 5 5 4 3 4 4 4
5 3 3 3 3 4 4 3 2 3 5 3 3 4 2 2 2 2 2 2 3 3 4 2 2 5 7 7 6 4 6 11 12 13 12 12 11 11 11 11 11 11 10 10 9 9 8 8 8 8 8 7 7 8 8 8 8 8 9 11 13 15 15 14 13 11 11 11 11 9 7 8 8 7 6 6 8 8 8 7 7 7 6 6 6 9 9 6 4 4 6 6 4 4 4 5 5
4 2 3 3 3 4 3 3 3 4 5 3 3 4 2 2 2 3 1 1 3 3 3 2 3 9 8 6 3 4 9 11 12 13 13 12 12 12 12 11 11 10 10 10 9 8 8 7 8 8 7 7 7 7 7 7 8 8 9 12 15 16 16 14 12 11 12 11 10 9 8 8 7 7 7 6 7 8 8 8 8 8 7 7 6 6 8 6 4 5 7 6 5 4 4 5 5
3 3 4 3 2 1 1 2 4 5 5 4 4 4 2 2 3 3 2 2 3 4 3 2 3 7 9 7 2 6 11 11 12 13 13 13 13 12 12 11 10 10 10 9 8 8 8 6 6 6 6 7 7 7 7 7 8 8 9 12 15 16 16 15 12 10 11 11 9 8 8 8 7 7 7 7 7 8 9 9 9 8 8 8 7 5 7 6 5 7 7 7 6 5 4 5 5
2 1 4 2 0 1 2 2 4 5 5 4 4 5 2 3 2 1 2 4 4 4 3 1 3 3 5 6 4 8 11 12 13 13 13 12 12 12 12 11 10 10 9 8 8 8 7 6 5 5 6 7 6 7 7 7 9 9 10 12 14 15 16 16 12 10 10 11 10 9 8 8 8 7 7 7 7 8 9 9 8 8 8 8 6 6 6 5 7 8 8 7 6 5 4 4 4
2 1 4 1 1 2 3 3 5 5 4 5 4 6 4 2 2 2 3 5 4 3 5 3 4 6 5 4 4 7 10 13 14 13 13 12 12 12 12 11 10 9 8 8 7 6 5 5 5 5 6 6 6 7 7 7 10 11 12 12 13 15 16 16 13 11 11 12 11 10 8 7 7 6 6 7 7 8 9 9 9 8 6 5 5 5 5 6 8 8 8 7 6 5 4 3 3
2 1 3 1 2 3 3 3 4 4 4 6 5 6 5 3 3 3 2 2 5 5 6 4 2 3 6 6 5 8 12 15 14 13 13 12 12 11 11 10 9 8 7 6 5 4 4 4 5 5 5 6 6 6 7 8 10 13 12 11 13 15 16 16 15 13 12 12 12 12 10 7 7 7 7 7 7 8 8 9 8 7 6 5 6 6 7 8 9 9 8 6 5 4 3 2 2
3 2 3 2 2 3 4 3 3 4 3 6 6 6 6 5 2 2 3 1 7 6 4 5 1 2 6 6 8 14 15 15 13 13 13 12 11 11 10 9 8 7 6 5 4 4 4 4 4 5 5 5 6 6 7 7 10 12 11 12 14 15 15 15 15 14 13 13 14 14 12 9 8 8 8 8 9 9 10 9 9 8 7 7 8 8 8 8 8 8 7 6 5 4 3 3 3
3 4 4 3 3 3 4 5 4 3 4 6 7 6 5 6 2 3 3 2 7 6 4 5 4 5 7 9 15 18 16 14 13 13 12 11 10 9 9 8 7 6 5 4 3 4 4 4 5 5 5 5 6 6 6 6 8 10 10 11 12 13 14 14 13 13 13 13 14 13 11 9 8 8 7 7 8 9 9 9 10 10 8 7 8 8 8 7 7 7 6 6 4 3 4 4 4
4 4 4 3 2 2 2 4 2 1 3 5 6 5 3 5 5 4 4 4 6 6 5 6 7 8 10 15 18 17 15 13 12 11 11 10 8 8 8 7 6 6 5 4 4 4 4 5 6 6 5 5 5 5 5 6 8 9 10 10 11 12 14 14 13 13 13 13 13 11 11 10 9 9 8 7 6 7 7 6 8 8 7 7 7 7 8 7 7 7 6 5 6 5 5 4 3
4 3 3 2 1 3 2 1 1 1 2 6 6 3 2 4 5 4 4 4 6 6 6 6 9 11 13 16 16 15 14 12 11 10 10 9 8 7 7 7 6 6 5 5 5 4 5 6 6 6 5 5 5 5 5 6 7 9 10 10 11 12 14 14 14 13 13 13 13 12 11 11 10 9 9 8 6 6 6 5 6 6 7 7 7 8 9 7 7 8 7 7 8 7 5 3 3
2 3 3 2 2 3 2 1 1 1 2 6 6 4 3 3 4 3 3 4 5 5 6 6 8 12 14 14 14 14 13 11 11 10 10 9 8 7 7 7 6 6 5 5 6 5 5 6 6 6 5 4 5 5 5 6 7 9 10 10 12 13 13 14 14 14 14 13 12 12 11 10 9 9 9 7 5 5 6 6 6 6 7 9 8 8 7 7 7 7 8 8 8 6 5 4 4
1 2 1 5 1 3 4 1 2 1 2 6 6 5 4 4 3 3 2 3 4 4 6 7 9 13 14 14 13 13 12 11 11 10 10 9 8 7 6 6 5 6 5 5 6 6 6 6 6 5 5 5 5 5 5 6 7 9 10 10 12 13 13 13 14 14 15 14 13 12 11 10 8 7 7 7 6 6 6 6 7 7 6 8 7 6 5 6 6 6 8 8 7 6 7 6 5
1 2 4 5 2 3 5 2 3 2 4 6 5 4 4 4 2 2 3 3 1 1 6 9 10 14 14 14 13 13 12 11 10 10 9 9 8 7 6 5 5 4 4 5 6 6 6 5 5 5 4 4 4 4 5 6 7 9 10 11 11 12 13 13 13 14 15 15 14 13 11 10 8 7 6 6 6 6 7 7 7 7 6 7 7 6 6 6 6 6 7 8 8 7 7 7 6
1 4 5 4 2 5 6 4 5 4 5 6 4 5 4 4 3 2 5 4 4 2 7 10 12 15 15 14 13 12 11 10 10 10 9 8 7 6 5 4 4 4 4 5 6 5 5 5 5 4 4 3 4 4 5 6 7 9 10 10 11 12 12 12 14 14 14 14 14 13 12 12 10 7 5 5 6 6 7 8 8 8 7 8 7 7 7 6 7 7 7 8 8 8 7 7 6
2 6 7 5 5 6 7 6 6 5 5 5 4 5 4 4 4 4 6 8 7 5 9 11 13 15 15 13 11 11 10 10 10 9 8 7 6 5 5 3 3 3 4 5 5 5 4 4 4 4 3 3 4 5 5 6 8 9 10 10 10 11 11 12 13 13 13 14 14 13 13 12 10 8 6 4 5 5 6 7 8 8 8 9 8 8 8 7 7 7 8 8 8 7 7 6 6
3 6 8 6 6 7 7 7 7 6 5 5 6 5 3 2 5 6 7 9 8 8 11 12 12 14 13 12 11 10 10 9 9 8 7 5 5 5 4 3 2 2 3 4 4 4 4 4 3 3 3 3 4 5 5 6 7 9 10 10 9 9 10 11 12 13 15 15 15 14 14 13 11 10 8 6 5 4 5 7 7 8 9 9 9 9 9 8 8 8 8 8 7 7 6 6 6
5 7 8 7 8 7 7 8 8 7 5 5 7 6 6 4 4 7 8 8 9 10 12 12 12 12 11 10 10 10 9 9 8 7 6 5 4 4 4 3 3 3 3 3 4 4 4 4 3 3 3 4 5 5 5 6 6 8 9 9 8 8 9 10 12 13 15 16 15 14 14 13 12 12 10 7 6 5 4 5 6 7 8 9 9 9 9 8 8 8 8 8 7 6 6 6 6
8 9 10 9 10 8 7 8 8 7 6 5 5 7 8 4 2 5 8 7 9 11 12 12 11 11 10 9 9 9 8 8 7 6 5 5 4 4 4 4 3 3 4 4 3 4 4 4 4 3 3 4 4 5 5 5 6 7 8 8 8 8 8 9 11 12 14 15 15 14 14 13 13 13 11 9 7 6 5 5 6 7 8 8 9 9 8 7 7 8 8 8 7 7 6 5 6
10 10 11 10 10 9 7 8 6 5 5 4 5 7 7 3 2 7 9 7 8 10 11 10 9 9 9 9 8 7 7 7 7 6 5 4 4 4 4 4 3 3 3 4 3 4 4 4 4 3 3 4 4 4 4 4 5 6 7 8 8 8 8 8 9 11 13 14 14 14 14 13 13 13 12 10 8 7 6 5 6 6 7 8 8 9 8 7 7 7 7 7 7 6 6 6 6
9 8 10 11 10 9 7 6 6 5 5 4 4 6 7 5 7 10 9 8 8 9 9 9 8 8 8 8 7 6 6 6 5 5 5 4 4 4 4 3 3 3 3 4 4 4 4 4 4 3 3 4 3 4 4 5 5 6 6 7 7 8 9 9 9 10 12 13 13 14 14 14 13 13 12 10 9 8 7 6 6 6 6 7 8 8 8 7 7 7 7 7 7 6 6 6 6
6 5 6 8 8 8 6 5 6 6 6 4 3 3 7 8 9 9 8 9 9 9 9 8 8 7 7 6 6 6 6 6 5 5 5 5 4 4 4 3 3 3 3 5 4 4 4 4 4 3 3 3 3 4 4 5 5 5 6 6 7 7 8 9 10 10 11 13 14 14 14 14 14 13 12 11 9 8 7 7 6 6 7 7 7 7 7 8 8 8 7 7 7 6 6 6 7
5 5 4 3 5 7 6 5 6 6 5 4 5 1 7 8 8 8 8 9 9 9 9 8 7 7 7 6 5 5 6 6 6 6 5 5 4 4 4 4 4 4 4 5 5 5 4 4 3 3 3 3 3 4 4 4 4 4 5 6 6 7 8 9 9 10 11 13 14 14 13 14 14 14 13 11 9 8 7 7 7 7 8 7 7 7 7 8 9 9 9 7 7 7 6 6 8
4 4 3 2 4 7 7 5 4 4 5 6 6 1 8 8 9 8 7 8 9 8 9 8 8 8 7 7 6 5 5 6 7 7 6 6 5 4 4 4 5 4 4 4 5 5 5 4 4 3 4 4 4 3 3 3 3 3 4 5 6 6 8 9 9 10 11 12 14 13 13 14 14 14 14 12 10 9 8 7 7 7 7 7 7 8 8 9 9 10 10 9 7 6 6 7 8
3 2 3 5 5 6 7 6 3 2 5 5 5 1 7 7 9 9 8 9 9 8 9 9 8 8 7 6 6 5 5 6 7 8 7 6 5 4 4 5 5 5 5 5 5 6 5 4 4 3 4 4 3 3 2 2 2 3 4 5 5 6 8 9 9 9 10 11 13 13 13 13 13 14 14 13 12 11 10 8 8 7 7 7 7 8 8 9 9 9 10 9 8 6 6 8 8
3 2 4 5 5 5 6 6 6 4 4 5 2 1 8 9 10 10 9 10 9 8 8 9 8 7 7 6 6 7 6 6 6 8 8 7 6 6 5 6 6 5 5 6 6 5 5 5 4 3 3 3 3 2 1 2 2 2 4 4 5 6 7 8 8 9 10 10 11 10 11 12 12 12 13 13 13 12 11 10 9 8 7 7 7 7 8 9 10 10 10 10 8 7 7 8 8
3 4 5 6 5 5 7 7 8 7 5 5 4 5 10 10 10 10 10 10 9 8 8 9 8 7 7 7 6 6 6 6 5 6 8 8 7 7 6 7 7 6 6 6 6 6 5 5 5 4 3 3 2 1 1 1 2 2 4 4 5 6 7 8 8 9 10 10 9 8 10 11 11 12 12 13 14 14 13 11 10 9 8 8 8 8 8 9 10 10 11 10 9 8 7 7 8
3 3 4 6 7 6 8 8 9 9 6 5 5 7 10 10 10 10 10 10 9 9 8 7 8 8 7 7 6 6 6 6 7 7 8 8 8 8 8 7 8 7 7 7 8 7 6 5 5 4 4 3 2 1 1 1 2 3 4 4 5 6 7 7 8 9 10 10 9 7 8 9 10 12 12 12 13 14 14 12 10 10 9 9 9 9 9 9 9 9 10 10 9 8 8 8 7
1 3 4 5 7 8 8 9 9 8 6 6 5 7 9 9 10 10 10 11 10 9 9 8 8 8 7 7 7 7 7 6 8 9 9 9 9 9 9 8 8 8 8 8 8 8 6 6 5 4 4 3 2 1 2 2 3 3 4 5 6 6 6 7 7 8 9 10 9 8 7 7 8 9 11 11 12 13 13 13 11 10 10 9 9 9 9 9 8 8 7 8 9 9 10 9 7
2 2 4 4 5 7 7 8 9 8 4 6 6 6 9 8 9 10 10 11 10 10 10 9 9 8 7 8 8 8 7 6 7 9 10 10 10 11 10 9 9 9 9 9 9 9 7 6 6 5 4 4 2 2 2 2 3 4 5 6 6 6 7 7 7 8 8 8 8 8 6 6 7 8 9 11 10 11 12 12 12 11 11 10 9 9 9 9 9 8 6 6 7 9 10 11 9
3 2 2 4 5 7 7 6 8 7 4 5 8 6 7 9 9 10 10 9 9 9 10 9 9 9 8 8 8 7 7 6 7 8 10 11 11 12 11 10 10 9 9 10 10 9 8 7 6 5 4 4 3 2 2 3 3 4 5 5 5 6 6 6 7 7 8 8 7 7 7 6 6 7 9 10 9 9 10 11 11 12 11 11 11 11 11 11 11 10 8 6 5 7 8 10 11
3 3 2 4 5 5 5 6 8 6 2 2 6 6 5 8 8 9 10 10 9 9 9 8 7 7 7 7 7 7 7 7 7 7 9 11 12 12 12 11 11 10 10 10 10 10 8 7 7 6 5 4 4 3 3 2 3 3 3 4 4 5 6 6 6 7 7 8 8 7 7 6 6 6 7 9 9 8 8 9 9 10 10 11 11 11 12 13 12 12 10 9 7 6 7 9 11
3 3 2 4 6 3 4 7 8 6 3 2 5 5 5 8 9 9 9 10 9 9 9 8 7 7 7 6 6 6 6 6 6 7 8 10 12 13 12 12 12 11 10 11 11 10 8 8 8 7 6 5 4 4 3 3 2 3 3 3 4 4 5 6 6 7 7 8 8 7 7 6 6 6 6 7 7 7 6 7 9 9 9 11 11 11 12 12 12 12 12 11 10 8 7 7 8
3 4 4 3 6 5 5 8 7 5 5 5 5 3 4 7 9 8 9 10 10 9 10 10 9 8 8 7 7 7 6 5 4 6 8 10 11 13 13 13 13 12 11 11 11 10 9 9 9 8 6 5 5 5 4 3 3 3 3 3 4 4 5 6 6 6 7 7 7 6 6 6 6 6 6 5 5 6 5 6 8 8 9 11 11 11 11 11 11 12 12 11 11 9 8 7 7
3 5 6 5 6 6 7 8 6 2 2 5 5 3 1 6 8 8 9 10 11 10 10 10 9 9 8 7 7 7 7 6 5 6 8 10 12 13 13 14 13 12 11 11 11 10 10 9 9 8 6 6 5 5 5 3 3 3 3 4 4 4 5 6 5 5 5 5 5 5 5 6 6 6 6 6 5 4 4 5 6 7 9 10 9 9 11 11 10 11 11 11 10 10 9 9 8
4 6 6 6 6 7 8 7 5 1 2 4 6 5 3 3 6 7 8 9 10 11 11 10 10 9 9 8 7 8 7 7 7 7 9 10 12 13 14 14 13 12 12 12 11 10 10 9 9 8 7 6 6 6 5 4 3 3 3 4 4 4 5 5 4 4 4 4 5 4 4 5 5 5 5 6 5 5 4 5 5 6 8 9 8 8 8 9 9 8 8 9 9 9 9 9 9
5 7 6 5 6 6 6 6 2 1 2 4 6 4 4 2 6 6 7 8 9 10 11 11 11 10 9 9 8 8 8 8 8 9 10 10 12 14 14 14 13 12 12 12 12 11 10 10 9 8 7 7 7 6 6 5 4 3 3 3 4 4 4 4 3 4 4 4 5 5 4 4 4 4 5 5 5 5 4 4 4 5 6 7 7 7 6 6 6 6 7 7 7 7 7 8 8
6 8 6 5 5 4 4 5 1 2 4 1 5 4 4 2 6 6 6 6 7 8 9 11 12 11 10 10 9 9 8 8 9 10 10 11 13 14 14 14 13 12 12 12 12 11 11 10 9 9 8 7 7 7 6 5 5 4 3 3 3 3 3 3 3 4 4 4 5 5 4 4 4 4 4 4 4 4 4 3 3 4 4 4 4 4 3 4 4 4 4 4 4 5 5 5 6
8 10 7 6 5 3 3 2 1 3 4 1 3 3 4 0 4 5 4 3 2 5 6 8 11 12 12 10 10 10 9 9 10 10 11 12 14 14 14 14 14 13 12 12 12 12 11 11 10 9 8 8 8 8 7 6 5 4 3 2 2 3 3 3 3 4 4 4 5 5 4 4 4 4 4 4 4 4 4 3 3 3 3 2 2 2 2 2 2 2 2 2 2 3 3 3 4
7 7 6 5 4 4 4 3 3 4 1 4 2 2 4 2 2 4 6 6 4 3 5 8 11 12 12 11 10 10 10 10 11 10 11 12 13 13 14 14 14 13 13 12 12 12 11 11 11 10 9 9 8 8 8 7 6 4 3 2 1 2 2 2 3 4 4 4 5 5 5 5 5 5 4 5 4 4 4 3 3 3 3 3 3 3 2 2 2 2 2 2 2 2 2 2 3
6 5 5 5 3 3 3 2 3 2 3 4 2 3 3 3 1 4 7 8 6 4 3 5 9 12 12 11 10 10 10 11 11 10 11 11 11 13 14 14 14 13 13 13 13 12 12 11 11 11 10 10 9 9 8 7 6 5 4 3 2 2 2 3 3 4 4 4 4 4 5 5 5 5 4 4 4 3 3 3 3 3 3 4 4 4 3 3 3 3 3 3 3 4 3 3 4
7 6 5 5 2 2 2 1 1 1 3 4 3 3 3 3 3 4 5 6 5 5 5 5 6 9 11 11 11 10 10 11 11 10 11 10 11 13 15 14 14 14 14 14 13 13 12 12 12 11 11 11 10 9 9 7 6 5 4 4 3 3 3 3 4 4 4 3 3 3 3 3 3 3 3 3 3 3 3 3 4 4 4 5 5 5 5 5 5 5 5 5 5 5 5 5 5
6 5 4 3 2 3 2 1 1 2 2 4 4 3 3 2 5 5 5 6 5 7 8 7 7 8 9 10 11 11 11 11 10 11 11 11 12 14 15 15 14 14 14 14 14 13 13 12 13 12 11 11 11 10 9 8 7 6 5 4 4 4 4 4 4 3 3 3 2 2 2 2 2 2 2 2 2 3 3 3 4 4 5 6 6 7 7 7 7 7 7 7 7 7 7 7 7
4 3 4 3 2 2 1 3 3 3 1 2 4 3 2 3 6 6 4 6 8 9 10 10 9 10 10 9 10 11 11 11 11 11 12 13 14 15 14 15 15 14 15 14 14 14 14 13 13 13 12 12 11 10 9 8 7 6 5 5 5 5 5 5 5 3 3 2 1 1 1 1 0 0 0 1 2 3 3 4 4 5 5 6 7 8 8 8 9 9 9 10 10 9 9 9 9
3 4 4 1 3 2 0 1 1 2 3 2 2 3 2 3 5 7 6 8 11 12 12 12 11 12 11 9 10 10 10 11 11 11 12 13 15 15 15 15 15 15 15 15 14 14 14 13 13 13 12 12 12 11 10 9 8 7 7 7 7 7 7 6 5 4 3 2 1 1 1 1 1 1 1 2 2 3 4 4 4 5 5 6 7 7 7 8 8 8 9 10 10 10 10 10 9
2 2 3 4 1 2 3 2 1 3 3 1 1 3 2 3 4 7 9 10 12 13 12 12 12 12 12 10 10 10 11 11 12 13 13 13 15 16 15 15 15 15 15 15 15 14 13 13 13 13 13 12 12 11 10 9 9 8 8 8 8 8 8 7 5 4 3 3 3 2 1 1 1 2 2 2 3 4 4 4 5 5 5 6 6 7 7 7 8 8 8 8 9 9 9 9 8
3 2 3 3 3 3 3 3 3 3 2 1 2 2 2 2 3 7 10 10 12 13 12 13 13 13 12 11 10 10 10 10 11 12 12 12 14 16 16 15 15 15 15 15 15 14 13 13 13 13 13 12 12 11 10 9 9 8 8 9 9 9 8 7 5 4 4 3 3 2 1 2 2 2 3 3 3 4 4 4 4 5 6 7 7 8 8 8 8 8 8 8 9 9 9 8 8
2 1 3 3 3 2 1 2 4 4 3 2 0 1 2 1 2 7 10 10 12 13 12 12 13 13 11 10 10 10 10 10 10 12 12 12 14 17 18 17 16 15 15 15 16 15 14 14 13 12 12 11 11 11 10 10 9 8 8 9 9 9 8 7 5 4 4 3 3 2 2 2 2 3 3 3 3 3 3 4 5 6 7 7 8 9 9 9 9 9 9 9 10 10 9 9 9
5 5 4 4 2 1 2 2 3 4 4 3 2 2 1 5 2 5 8 10 11 12 12 11 11 12 11 10 11 10 10 10 10 11 12 12 14 16 17 17 16 15 14 15 15 16 15 15 14 13 12 12 12 11 11 10 9 9 9 9 9 9 8 7 6 5 4 4 3 3 2 2 2 2 2 1 2 3 4 5 6 7 7 8 9 9 9 9 9 9 9 10 10 10 11 10 10
4 4 5 5 4 3 4 4 3 3 4 4 3 4 2 5 1 3 5 8 10 12 13 11 11 12 12 10 10 10 10 10 10 11 11 11 13 15 16 16 16 15 14 16 16 16 16 16 15 14 13 13 12 12 12 10 10 9 10 10 9 9 8 7 6 5 5 4 3 3 2 2 1 0 2 3 3 4 5 5 6 7 8 8 9 9 10 10 10 10 10 10 11 11 11 11 11
Wind_Direction
182 178 159 161 182 206 202 215 216 192 240 239 215 214 159 170 330 204 179 164 179 96 60 44 35 9 24 85 96 87 58 40 29 309 62 112 120 109 105 103 93 94 89 89 94 86 79 74 70 67 61 55 51 52 56 59 59 55 48 41 34 29 22 15 4 352 337 322 311 313 326 332 328 323 319 318 320 322 324 328 329 334 339 337 339 349 358 345 323 319 337 329 312 315 316 307 324
161 158 158 175 197 219 193 209 239 186 218 232 195 210 132 144 203 216 179 140 86 87 95 68 64 44 64 106 125 103 60 48 66 75 86 117 113 96 103 100 93 95 90 90 87 81 75 71 70 67 62 59 58 59 62 64 61 54 45 39 33 27 20 16 14 9 3 356 338 314 307 318 329 329 325 324 324 322 321 327 333 336 344 345 340 348 358 356 341 340 1 337 322 332 325 322 335
167 166 178 193 201 230 201 203 247 212 216 225 183 143 117 192 195 149 83 85 79 106 131 108 98 52 52 137 107 66 77 65 74 94 106 119 111 101 104 98 95 93 89 90 81 77 72 71 74 71 68 64 63 64 66 64 56 46 34 27 21 18 13 8 9 5 2 0 356 342 317 304 312 326 329 329 327 323 323 330 337 336 337 339 332 339 353 354 2 8 19 357 350 356 339 344 336
171 193 201 205 200 221 210 205 249 239 224 228 185 133 164 194 128 102 88 88 107 155 152 141 113 19 340 94 86 71 97 91 67 87 108 109 113 117 112 105 100 93 91 88 80 77 74 76 78 74 71 66 65 63 62 55 42 31 20 16 14 13 10 3 0 358 355 350 348 347 340 322 307 312 323 330 330 329 331 333 331 321 316 328 331 336 347 354 8 17 26 13 10 8 4 359 329
182 199 217 234 222 207 219 217 251 243 234 240 145 122 140 124 111 105 94 87 119 160 146 166 108 77 52 64 63 81 95 102 85 82 100 105 112 118 115 110 102 98 95 87 83 79 77 81 79 75 71 65 61 55 49 40 27 19 14 14 13 14 10 1 354 350 348 345 341 339 341 342 330 315 315 325 333 337 334 325 312 301 307 322 328 330 322 349 14 19 29 23 24 18 6 352 319
193 187 204 241 258 239 238 218 221 225 271 334 111 126 124 110 107 104 101 95 92 76 114 251 114 120 99 64 43 55 62 103 102 91 100 110 116 119 115 108 102 100 94 86 85 80 83 85 78 76 70 59 52 44 36 26 18 15 14 15 15 12 6 1 353 349 347 344 341 336 334 338 344 338 326 324 334 339 325 313 307 298 311 320 317 325 316 24 43 30 34 34 34 25 360 336 318
206 187 187 214 182 218 238 219 222 203 82 359 74 124 119 104 104 115 125 116 107 119 96 40 102 112 111 107 79 60 43 67 102 102 110 121 118 113 109 106 103 100 94 87 83 83 90 88 79 76 68 56 45 36 28 20 14 13 12 15 17 10 5 2 354 352 348 344 340 335 331 329 337 342 341 334 336 340 328 334 337 323 325 329 327 332 327 34 54 41 38 40 31 16 348 333 332
232 215 197 213 176 209 237 213 227 146 105 122 93 98 90 100 120 136 139 86 69 110 111 101 90 101 121 147 104 80 74 81 105 110 114 118 110 107 107 109 106 101 94 88 87 90 93 87 79 74 67 56 41 29 23 16 11 10 13 20 18 10 7 3 359 355 348 348 345 341 338 334 334 336 344 343 343 345 346 355 351 341 335 332 333 334 339 17 48 46 42 39 26 7 347 339 338
228 219 213 230 196 198 221 190 143 120 148 165 129 103 87 111 134 147 164 83 69 97 104 94 43 118 132 129 98 86 92 98 110 110 111 110 107 109 108 108 105 102 97 93 93 93 91 86 80 72 62 48 36 23 18 16 13 14 21 27 20 13 8 3 2 358 350 352 354 354 352 353 353 344 345 349 354 350 351 354 340 337 328 326 334 332 338 3 30 47 46 36 21 9 352 336 334
211 217 234 231 205 198 198 171 137 150 153 157 118 108 126 155 149 188 217 98 125 120 93 41 54 122 120 116 109 97 119 118 114 109 110 112 112 111 106 104 102 101 98 93 90 90 91 86 77 67 54 37 28 16 17 25 23 22 28 28 22 15 9 5 5 1 356 357 1 5 6 12 12 4 2 360 359 345 342 343 334 340 332 333 347 331 325 333 11 46 48 37 18 11 359 340 336
209 179 249 232 206 214 199 153 151 156 135 147 124 106 134 169 183 202 220 103 147 134 138 223 133 133 126 113 101 120 141 131 118 116 117 117 114 112 108 104 99 96 92 88 86 85 85 80 68 57 44 30 19 11 20 32 28 26 30 28 22 16 9 8 7 5 4 2 7 11 13 20 25 23 14 3 351 336 341 357 360 1 359 352 348 331 314 309 0 38 44 39 24 15 4 353 347
236 151 227 231 209 221 198 149 148 146 138 155 135 114 136 175 207 198 180 154 157 147 155 220 152 156 144 124 123 142 141 129 121 123 122 119 114 113 110 105 100 94 89 86 82 77 73 68 58 45 33 25 14 17 34 35 31 29 31 28 22 17 12 11 8 8 9 8 11 10 13 15 27 30 13 1 348 339 349 7 10 6 15 1 346 348 319 310 4 27 34 33 24 16 3 360 351
283 174 249 228 42 231 163 162 148 156 149 140 119 117 148 176 193 148 136 137 142 147 114 116 143 131 112 112 151 152 136 128 127 126 123 120 115 114 110 107 101 94 89 84 78 72 66 57 50 37 30 29 24 34 47 42 38 36 34 29 25 22 16 13 11 13 13 14 17 14 15 17 24 25 15 11 355 350 356 11 16 9 17 3 356 12 343 342 21 26 26 26 22 12 355 352 349
322 323 292 289 180 212 162 174 161 171 136 115 125 130 151 150 128 131 147 137 112 103 93 115 139 98 95 133 163 150 132 132 132 127 125 120 116 116 113 109 102 96 91 83 78 74 69 55 42 32 30 35 42 46 50 48 43 40 36 32 30 27 20 16 18 23 21 21 23 21 24 29 33 27 22 22 7 5 10 23 29 17 16 5 8 18 3 13 26 27 26 26 22 7 348 344 352
296 267 284 267 197 201 178 195 164 177 125 118 144 139 143 93 100 147 129 114 93 103 114 112 147 123 144 167 161 141 135 137 136 131 129 123 121 119 114 110 105 102 95 88 83 80 67 48 37 33 36 42 51 53 56 52 41 39 38 39 35 28 23 21 25 31 30 28 29 29 35 44 48 39 25 20 13 20 32 40 40 27 19 20 29 26 23 28 28 29 26 24 18 8 5 6 19
282 273 256 235 209 210 180 194 181 178 125 115 141 148 144 106 95 107 49 46 107 124 136 98 62 115 130 155 140 132 137 140 138 135 131 126 123 119 117 113 110 109 102 97 84 74 58 43 38 41 50 54 57 58 62 54 40 38 38 42 36 28 26 26 28 32 33 33 33 31 35 43 48 45 31 24 18 24 37 39 36 31 22 18 29 30 27 31 32 33 28 22 16 15 36 43 55
249 251 248 227 197 202 170 183 186 147 114 119 144 164 149 119 114 86 76 102 112 119 114 92 91 90 109 131 128 129 138 142 140 139 134 129 126 125 123 119 118 115 109 106 86 71 60 52 50 52 63 65 63 64 66 54 39 35 38 43 36 29 29 29 30 34 37 34 33 30 31 37 42 47 39 36 26 18 24 27 24 24 26 27 31 30 25 29 33 34 29 22 15 21 52 49 49
244 240 247 244 172 148 155 190 180 111 140 135 150 173 145 128 136 131 136 125 122 125 109 110 105 93 111 122 124 132 141 143 143 141 134 131 132 131 125 122 117 107 106 103 93 81 64 60 55 58 69 65 61 66 68 51 37 34 38 43 36 32 32 31 32 35 38 35 35 33 31 32 37 45 40 41 39 26 24 26 23 22 39 46 42 35 26 31 31 27 27 28 31 40 55 48 39
257 262 242 235 66 94 88 260 194 254 146 132 149 161 114 133 143 156 174 145 148 142 123 135 116 109 121 125 131 138 143 144 142 138 133 134 134 128 119 115 105 97 101 95 95 93 69 60 55 60 69 63 56 62 66 48 35 34 38 42 36 34 33 35 37 36 37 35 35 33 31 29 32 38 33 34 42 36 32 31 27 32 45 37 41 45 32 33 34 32 38 39 35 34 43 40 42
268 263 241 106 63 102 105 271 178 58 108 135 137 127 122 137 141 170 190 154 165 156 139 154 130 127 134 135 141 143 145 141 136 137 135 134 130 122 110 106 103 97 98 94 90 84 70 59 56 64 67 59 52 56 60 46 35 35 39 41 37 35 34 37 39 39 36 33 32 29 27 25 25 30 25 24 30 30 30 31 31 36 43 30 34 47 35 31 33 29 31 32 29 24 29 29 38
226 259 337 76 121 149 112 194 158 110 131 127 119 132 142 127 141 188 179 144 162 146 137 158 148 140 142 143 147 146 144 139 140 143 140 139 130 121 114 106 99 93 93 93 83 77 72 61 57 65 66 55 48 52 54 46 36 36 41 41 37 35 35 35 36 37 35 30 28 23 21 17 14 20 20 18 21 27 26 29 36 36 43 33 27 39 35 33 34 26 23 26 25 23 29 32 39
318 49 53 81 169 126 101 135 130 115 122 118 132 142 121 116 164 183 111 103 210 118 134 157 154 145 147 147 148 147 146 146 149 149 145 141 132 128 128 120 106 102 102 89 79 76 74 64 61 65 64 52 44 49 51 49 39 35 41 39 36 36 34 34 32 31 31 28 24 20 18 14 9 8 13 17 15 21 23 23 35 37 40 37 27 33 34 30 35 33 28 28 25 25 32 38 44
48 89 87 86 78 93 103 117 115 127 130 124 133 108 108 142 156 145 109 124 236 225 138 148 148 147 147 145 148 149 149 150 149 148 144 138 137 139 137 132 120 116 103 86 78 78 78 67 62 66 66 51 41 43 47 50 41 37 41 39 36 35 33 33 31 29 29 25 21 19 16 13 11 8 11 21 16 17 21 21 28 31 35 38 31 32 33 30 34 35 34 33 28 29 36 42 47
113 107 95 87 78 88 96 100 109 121 117 108 108 112 152 175 142 149 123 134 178 169 136 138 143 146 143 144 149 150 151 151 148 147 141 140 146 146 144 143 130 111 94 90 86 80 85 78 64 68 68 54 41 40 46 48 42 40 41 40 40 37 34 35 34 31 29 25 21 19 17 15 18 23 25 27 25 23 22 20 26 30 31 32 29 29 32 32 34 34 35 35 29 29 37 45 48
110 102 95 101 93 94 97 101 108 109 103 113 133 139 151 145 132 134 109 117 136 135 133 136 141 145 145 148 151 152 154 152 151 152 150 155 159 162 169 164 160 137 104 98 97 87 92 90 72 68 63 49 40 37 43 46 41 42 42 42 44 42 40 38 36 34 30 26 23 21 21 23 28 35 36 36 36 34 29 25 28 32 32 29 25 25 27 27 30 31 29 29 28 28 37 44 47
112 106 106 112 106 106 107 108 114 119 131 152 155 141 119 120 135 116 99 107 118 125 133 138 144 147 149 153 154 157 156 156 160 162 167 174 179 192 193 183 180 151 128 117 105 95 95 88 71 72 64 44 38 35 41 44 37 42 44 43 47 47 45 42 37 36 31 27 26 24 26 32 37 38 37 39 40 38 39 35 32 32 31 29 26 24 22 22 26 28 25 24 23 26 38 47 50
108 110 108 109 112 117 115 114 125 131 138 164 153 122 118 138 193 117 109 115 125 133 134 140 146 147 153 156 159 161 159 165 170 173 180 185 195 201 188 185 173 135 129 132 117 101 97 86 72 78 70 50 44 40 43 44 37 40 43 45 50 46 44 45 38 35 33 29 29 29 31 37 41 39 37 39 43 43 44 42 37 30 27 27 27 26 22 20 22 24 23 21 19 22 37 51 55
117 118 109 107 112 112 111 112 125 132 127 152 138 123 129 145 139 115 117 125 136 137 133 142 147 150 158 158 159 163 166 173 174 182 188 183 185 174 167 169 151 132 132 135 125 109 101 87 83 90 81 65 54 49 49 46 38 38 43 47 51 44 41 45 40 37 35 33 34 33 35 40 41 39 37 38 44 47 46 42 39 31 26 26 22 22 23 22 23 23 20 18 17 23 38 52 57
126 126 112 115 117 104 99 102 115 127 122 139 152 142 136 121 110 113 125 136 144 143 140 150 155 159 163 161 166 168 175 179 177 188 184 173 169 153 155 151 139 146 143 141 136 119 107 93 96 105 93 79 67 57 51 46 38 35 40 45 48 43 42 45 44 41 38 39 41 38 38 41 41 39 38 40 45 48 47 43 39 32 25 24 20 20 26 27 27 23 19 20 20 26 42 54 60
140 142 127 128 122 102 100 105 117 119 121 143 202 157 117 108 116 124 138 145 151 153 153 160 163 168 169 170 178 172 177 182 181 186 177 171 164 148 152 150 151 156 146 145 144 137 122 104 104 112 110 98 84 69 54 43 34 28 32 41 45 42 43 47 48 46 43 43 44 42 41 42 42 40 38 38 41 44 45 40 35 31 25 25 27 25 30 32 31 26 20 21 23 27 41 54 64
167 161 159 145 107 105 114 127 136 126 140 198 260 173 114 117 128 137 147 152 161 160 159 167 165 171 175 175 182 177 178 178 176 178 174 175 165 149 153 161 166 163 153 147 147 148 136 118 111 116 123 115 99 82 62 44 29 23 29 40 45 45 47 50 51 49 46 45 45 44 42 42 42 40 37 34 35 35 35 36 32 29 26 32 40 37 36 36 33 28 20 18 26 33 41 56 69
193 171 144 116 99 116 124 142 170 121 141 213 268 102 117 131 138 147 160 161 171 168 164 170 167 173 179 174 178 183 181 173 171 174 174 173 161 154 161 169 172 168 163 154 153 153 147 136 121 123 130 122 108 88 69 47 29 27 34 45 51 49 50 51 53 51 50 49 46 45 44 42 41 40 38 35 32 32 31 36 35 31 31 41 49 45 44 40 34 29 23 17 24 37 47 61 72
203 187 101 101 112 131 132 141 170 115 133 182 253 133 115 133 142 150 167 167 177 177 165 169 170 172 177 175 175 181 182 176 174 172 169 165 163 170 173 175 178 178 171 162 160 157 153 148 134 131 132 125 115 94 75 52 39 42 46 52 55 50 50 52 54 53 53 53 49 46 45 42 39 39 38 34 33 35 36 41 42 39 39 48 53 50 47 41 34 30 27 22 21 34 54 63 70
148 127 97 100 107 130 135 138 154 175 163 147 215 111 105 126 146 156 173 175 181 182 168 168 172 173 175 179 179 180 182 179 178 169 166 169 174 183 182 181 182 182 180 173 169 160 153 151 146 142 135 132 126 103 79 54 48 56 58 58 58 54 54 54 55 57 57 58 54 49 46 44 40 37 36 34 35 38 42 48 50 48 48 54 54 50 46 41 37 33 31 29 23 29 48 59 65
114 118 114 118 116 119 124 129 148 176 189 141 142 116 114 134 151 160 174 180 186 185 174 169 173 178 179 183 184 185 183 178 182 174 170 175 182 187 186 186 186 185 185 179 173 165 157 154 151 152 145 143 145 127 97 80 76 72 67 67 65 60 59 58 56 58 59 61 60 53 50 46 41 39 36 35 37 40 47 53 56 54 54 56 51 46 44 40 39 36 35 35 32 31 39 51 59
70 98 111 119 112 98 104 113 141 172 178 149 144 126 129 146 153 163 173 180 191 187 181 180 179 184 187 193 195 195 192 183 184 182 179 182 185 188 186 186 187 185 183 178 175 171 165 160 154 155 152 154 164 149 108 85 83 79 73 68 64 60 61 61 56 55 57 61 62 58 54 49 44 43 40 37 39 42 48 54 56 56 57 57 52 45 41 39 37 36 38 39 40 39 37 41 47
106 119 107 108 106 100 109 118 144 183 177 136 139 135 138 150 154 165 172 177 193 192 188 192 187 189 192 197 200 201 202 190 178 179 187 190 186 186 185 184 184 180 178 176 176 175 171 167 163 159 153 158 170 139 97 73 65 66 65 60 59 59 60 61 59 55 55 60 61 60 60 54 48 45 41 39 41 44 49 53 53 53 55 54 52 45 40 38 34 34 40 45 47 46 38 34 31
191 150 117 115 107 102 109 121 145 196 213 130 142 152 147 155 156 162 174 182 192 192 191 194 191 194 195 196 200 199 200 193 177 179 190 191 185 185 182 180 181 178 176 175 176 177 174 171 170 162 154 155 161 134 98 77 61 53 54 53 53 58 58 58 58 56 57 61 61 62 66 59 53 50 46 43 43 45 48 50 51 51 52 51 49 47 42 40 37 34 39 50 56 53 43 34 26
186 165 146 123 113 113 117 132 150 191 232 136 159 181 151 157 161 163 179 187 190 190 190 192 190 193 195 192 195 196 195 196 192 189 190 187 183 184 181 178 180 178 175 175 175 176 174 175 175 168 160 155 152 145 112 85 72 59 53 53 53 60 61 57 58 59 61 64 63 64 67 66 59 55 53 51 49 47 46 50 51 50 50 49 48 47 44 42 40 39 38 42 53 62 54 38 29
190 182 163 119 138 149 129 147 165 185 256 116 171 193 149 157 169 173 186 190 191 190 190 193 190 191 194 186 183 194 201 199 200 195 186 183 182 183 183 177 174 174 174 174 173 175 176 178 177 172 168 160 152 152 132 105 91 75 64 64 68 70 68 66 68 67 65 64 63 61 63 65 63 60 59 58 55 49 46 48 50 46 44 47 47 44 41 40 39 40 41 39 35 49 57 44 35
182 204 172 123 156 181 95 134 159 178 218 227 211 204 161 168 181 180 186 192 194 190 189 199 201 194 195 193 187 196 205 200 198 190 179 180 179 181 184 176 171 173 174 174 174 175 176 175 175 174 173 165 155 156 149 135 122 102 94 96 94 87 78 72 67 63 59 59 57 55 56 58 60 64 64 60 58 53 47 47 50 47 44 47 48 45 43 40 39 38 40 42 36 33 45 49 43
166 199 199 159 165 160 122 141 160 186 191 194 222 223 151 169 188 182 173 186 196 192 192 200 202 198 196 196 192 194 195 187 188 183 173 175 175 177 180 174 173 176 173 173 173 173 173 172 173 175 175 171 162 162 162 150 137 117 105 103 94 82 75 67 56 51 50 50 50 50 53 54 56 61 65 62 58 54 46 45 51 51 47 50 49 48 48 43 41 41 40 43 41 33 37 45 45
144 160 188 189 176 164 157 168 187 218 117 151 211 257 121 160 182 176 170 187 193 189 196 199 194 196 198 191 181 180 176 164 167 169 165 168 169 170 175 176 177 175 171 169 169 170 171 170 173 177 178 175 167 165 169 159 140 122 107 99 84 72 71 68 59 52 47 45 47 48 50 52 51 54 61 62 60 55 46 43 49 51 50 51 48 48 50 48 46 44 40 41 41 38 40 43 41
99 125 180 185 182 175 173 191 209 330 58 161 201 256 291 153 151 160 176 193 192 188 197 198 192 190 192 189 176 169 161 155 159 160 159 163 166 168 171 175 177 171 167 166 167 170 173 173 175 178 179 175 169 168 171 165 146 132 121 110 92 75 69 68 64 58 51 42 42 47 47 50 48 46 53 58 61 59 53 48 48 52 54 53 51 48 47 46 44 40 37 38 39 38 39 41 40
90 133 175 168 186 186 182 207 203 99 255 198 168 218 266 129 125 151 181 201 202 196 196 193 191 188 184 186 176 160 150 152 154 153 156 160 164 167 167 170 171 165 164 167 168 172 175 177 177 179 181 176 172 173 174 168 155 143 133 117 100 85 71 66 64 61 57 46 46 52 51 52 49 46 48 51 57 57 53 53 49 51 55 57 54 47 39 37 35 33 34 34 35 36 34 37 40
106 145 154 141 172 180 199 230 177 171 249 229 131 195 266 85 128 157 177 200 201 189 191 188 185 185 182 180 172 156 147 149 150 148 152 157 160 160 160 163 162 160 166 170 170 172 175 178 179 181 182 176 173 177 178 172 166 161 145 120 96 84 69 61 66 69 67 59 59 61 58 58 54 53 54 51 55 57 54 55 56 55 57 59 53 39 31 31 29 26 26 22 22 29 32 33 35
135 154 150 146 162 162 202 248 219 213 221 114 109 209 262 15 129 144 144 153 151 154 169 173 176 180 178 175 171 163 155 150 149 148 147 149 153 155 156 159 160 160 166 170 173 175 175 177 179 181 182 177 174 178 181 176 174 170 153 136 102 80 66 67 78 81 80 75 73 73 72 71 66 65 68 65 64 62 55 51 52 55 50 46 40 27 23 22 17 5 354 353 355 2 8 16 22
168 182 169 164 165 173 195 180 206 241 158 101 98 190 238 259 109 112 123 131 135 136 143 160 175 179 174 176 174 167 160 153 153 153 147 145 150 155 158 161 162 164 167 174 178 177 176 177 178 179 179 178 177 180 183 179 176 173 163 162 139 93 85 98 99 93 92 89 86 85 83 84 82 80 81 78 73 61 53 47 38 36 29 22 21 17 12 358 346 328 315 309 307 312 315 329 353
208 215 200 205 188 178 215 181 193 253 88 102 121 156 216 259 131 128 143 153 160 154 116 144 173 176 172 176 172 164 161 158 158 157 150 151 158 162 166 166 166 169 173 179 181 178 178 178 178 180 179 180 182 183 186 184 181 180 175 177 169 139 134 128 120 110 104 98 93 91 89 88 87 85 82 80 72 52 43 35 18 11 4 356 351 349 346 332 317 314 314 308 306 309 301 297 304
215 217 217 235 232 193 235 216 181 37 92 110 140 179 220 217 155 135 145 145 147 156 139 127 153 165 168 173 169 164 165 163 163 161 157 160 165 167 171 173 172 175 179 181 183 183 182 180 181 184 181 182 186 187 189 188 186 185 182 184 181 166 155 144 136 122 115 110 101 96 91 90 89 85 80 66 47 23 13 5 350 343 337 332 329 327 326 319 305 306 315 311 311 315 304 294 298
207 234 251 262 293 273 264 333 9 29 87 116 147 203 252 154 119 108 115 119 131 154 147 134 135 148 160 169 168 168 170 170 168 165 162 163 166 169 174 177 178 180 180 181 183 185 186 185 184 186 184 182 187 190 191 190 189 189 187 188 183 173 163 153 147 137 130 129 116 107 101 97 91 79 70 35 1 343 334 329 323 321 320 318 317 315 313 312 304 301 307 306 305 309 301 294 295
179 235 248 245 298 297 345 27 8 346 317 142 159 220 299 84 120 127 129 138 149 154 149 149 151 150 156 166 171 175 176 176 173 167 165 165 166 170 174 178 181 181 180 181 184 186 189 189 187 189 188 184 186 192 193 193 194 192 191 191 184 177 173 164 158 159 160 157 151 141 130 121 111 58 348 311 311 308 303 304 305 308 309 310 314 313 309 311 310 306 310 311 310 312 308 302 299
154 213 216 106 13 323 256 95 72 291 266 158 166 231 194 149 161 157 160 159 156 158 159 160 159 158 163 168 174 180 180 179 177 171 168 167 169 171 174 178 182 182 182 182 184 186 189 191 188 189 189 187 189 193 195 196 197 197 197 194 188 183 182 179 176 178 179 182 199 198 189 210 240 266 277 288 298 301 300 304 312 317 321 325 328 330 327 325 325 322 323 325 323 323 321 316 312
226 224 146 109 39 261 251 270 212 245 259 144 184 266 215 183 168 154 169 170 162 166 166 163 163 166 171 173 175 181 182 180 179 175 169 168 172 175 176 179 181 184 185 184 184 187 189 191 190 189 190 189 191 193 196 197 197 200 200 194 191 190 188 188 189 189 190 198 207 207 218 249 280 290 297 308 314 322 324 324 335 347 356 0 0 0 358 353 351 348 346 346 344 342 338 334 333
300 344 129 161 251 222 198 250 269 262 278 166 177 266 243 219 160 160 178 176 168 172 169 165 170 175 179 177 174 176 176 176 178 177 171 169 174 177 179 181 181 183 188 187 186 185 186 188 188 189 190 191 192 193 194 196 196 198 197 192 191 191 190 192 194 197 204 214 215 219 254 289 311 313 313 323 328 336 345 353 7 20 25 25 24 21 17 14 11 9 5 5 4 0 355 354 356
219 226 189 221 283 309 214 249 283 288 293 287 263 239 198 123 122 170 177 172 172 175 173 173 175 178 183 179 174 172 169 173 180 179 174 172 175 179 180 183 183 183 187 189 187 186 185 184 184 187 188 189 190 191 192 195 197 195 192 190 189 190 192 195 198 206 217 224 231 246 274 296 314 320 320 330 345 1 22 38 42 43 40 36 33 30 26 24 23 22 19 16 15 11 10 9 8
197 206 204 202 199 280 275 239 259 288 292 294 313 290 96 70 76 194 173 167 173 174 177 180 176 175 179 177 174 171 167 174 182 181 178 172 172 177 179 183 187 186 186 187 187 188 187 185 186 187 188 190 191 193 196 198 196 194 192 191 191 192 196 201 206 216 225 230 241 258 278 300 310 317 328 8 54 65 66 66 61 56 52 47 42 38 34 32 31 32 30 26 22 21 22 21 17
246 224 213 211 194 216 247 225 202 243 283 300 312 298 14 65 54 223 167 162 174 176 179 181 176 173 174 173 170 166 165 172 178 182 179 170 168 173 175 180 187 187 186 188 189 190 190 190 191 191 192 196 197 197 200 200 198 197 195 195 196 197 201 206 211 221 229 235 244 254 272 290 277 200 101 101 97 91 82 77 73 66 62 56 51 47 42 41 39 38 38 34 31 29 30 30 27